TimeEDT,TemperatureF,Dew PointF,Humidity,Sea Level PressureIn,VisibilityMPH,Wind Direction,Wind SpeedMPH,Gust SpeedMPH,PrecipitationIn,Events,Conditions,WindDirDegrees,DateUTC
12:54 AM,46.0,36.0,68,30.13,10.0,Calm,Calm,-,N/A,,Clear,0,2013-05-07 04:54:00
1:54 AM,45.0,35.1,68,30.13,10.0,Calm,Calm,-,N/A,,Clear,0,2013-05-07 05:54:00
2:54 AM,43.0,34.0,71,30.12,10.0,Calm,Calm,-,N/A,,Clear,0,2013-05-07 06:54:00
3:54 AM,43.0,34.0,71,30.13,10.0,Calm,Calm,-,N/A,,Clear,0,2013-05-07 07:54:00
4:54 AM,41.0,33.1,73,30.13,10.0,Calm,Calm,-,N/A,,Clear,0,2013-05-07 08:54:00
5:54 AM,37.9,33.1,83,30.14,10.0,Calm,Calm,-,N/A,,Clear,0,2013-05-07 09:54:00
6:54 AM,44.1,36.0,73,30.15,10.0,Calm,Calm,-,N/A,,Clear,0,2013-05-07 10:54:00
7:54 AM,51.1,39.0,63,30.16,10.0,Calm,Calm,-,N/A,,Clear,0,2013-05-07 11:54:00
8:54 AM,60.1,41.0,49,30.16,10.0,Calm,Calm,-,N/A,,Clear,0,2013-05-07 12:54:00
9:54 AM,66.0,42.1,42,30.15,10.0,Calm,Calm,-,N/A,,Clear,0,2013-05-07 13:54:00
10:54 AM,73.9,39.0,28,30.14,10.0,Calm,Calm,-,N/A,,Clear,0,2013-05-07 14:54:00
11:54 AM,77.0,39.0,25,30.12,10.0,Calm,Calm,-,N/A,,Clear,0,2013-05-07 15:54:00
12:54 PM,79.0,37.9,23,30.10,10.0,South,6.9,-,N/A,,Clear,190,2013-05-07 16:54:00
2:54 PM,82.0,37.0,20,30.07,10.0,Calm,Calm,-,N/A,,Clear,0,2013-05-07 18:54:00
3:54 PM,82.0,37.0,20,30.06,10.0,Calm,Calm,-,N/A,,Clear,0,2013-05-07 19:54:00
4:54 PM,81.0,34.0,18,30.05,10.0,Calm,Calm,-,N/A,,Clear,0,2013-05-07 20:54:00
5:54 PM,82.0,30.9,16,30.04,10.0,Calm,Calm,-,N/A,,Clear,0,2013-05-07 21:54:00
6:54 PM,79.0,27.0,15,30.05,10.0,Calm,Calm,-,N/A,,Clear,0,2013-05-07 22:54:00
7:54 PM,68.0,37.0,32,30.07,10.0,Calm,Calm,-,N/A,,Clear,0,2013-05-07 23:54:00
8:54 PM,60.1,42.1,51,30.09,10.0,Calm,Calm,-,N/A,,Clear,0,2013-05-08 00:54:00
9:54 PM,55.0,42.1,62,30.11,10.0,Calm,Calm,-,N/A,,Clear,0,2013-05-08 01:54:00
10:54 PM,53.1,42.1,66,30.12,10.0,Calm,Calm,-,N/A,,Clear,0,2013-05-08 02:54:00
11:54 PM,50.0,42.1,74,30.13,10.0,Calm,Calm,-,N/A,,Clear,0,2013-05-08 03:54:00